Location: Unspecified
(44.0704°N, 88.6889°W)
Time: 17:06:23
(UTC+02:00)

Cosmos 1674 - Visible Passes

Search period start: 23 May 2018 00:00
Search period end: 02 June 2018 00:00
Orbit: 496 x 521 km, 82.5° (Epoch: 22 May)

Date Brightness Start Highest point End Pass type
(mag) Time Alt. Az. Time Alt. Az. Time Alt. Az.
23 May 2.7 09:17:49 67° NW 09:17:49 67° NW 09:21:17 10° N visible
24 May 2.8 09:00:49 69° NNE 09:00:49 69° NNE 09:04:09 10° N visible
25 May 3.1 08:43:48 57° NE 08:43:48 57° NE 08:47:00 10° NNE visible
26 May 3.5 08:26:47 44° ENE 08:26:47 44° ENE 08:29:48 10° NNE visible
26 May 5.0 10:01:38 12° WNW 10:02:04 12° WNW 10:03:28 10° NW visible
27 May 3.9 08:09:44 34° ENE 08:09:44 34° ENE 08:12:33 10° NNE visible
27 May 4.8 09:44:36 15° WNW 09:44:49 15° WNW 09:47:01 10° NW visible
28 May 4.2 07:52:41 27° ENE 07:52:41 27° ENE 07:55:15 10° NNE visible
28 May 4.6 09:27:33 18° WNW 09:27:36 18° WNW 09:30:17 10° NNW visible
29 May 4.5 07:35:37 22° ENE 07:35:37 22° ENE 07:37:53 10° NE visible
29 May 4.3 09:10:29 23° WNW 09:10:29 23° WNW 09:13:26 10° NNW visible
30 May 4.8 07:18:32 17° ENE 07:18:32 17° ENE 07:20:26 10° NE visible
30 May 4.0 08:53:24 29° WNW 08:53:24 29° WNW 08:56:30 10° NNW visible
31 May 5.0 07:01:27 14° ENE 07:01:27 14° ENE 07:02:50 10° NE visible
31 May 3.7 08:36:19 37° WNW 08:36:19 37° WNW 08:39:31 10° N visible
01 Jun 5.2 06:44:21 11° ENE 06:44:21 11° ENE 06:44:52 10° ENE visible
01 Jun 3.4 08:19:13 46° NW 08:19:13 46° NW 08:22:29 10° N visible
